Flag for USA Past Weather in Kykotsmovi Village, Hopi, Arizona, USA — Yesterday and Last 2 Weeks

Now
77 °F

Sunny.


Feels Like: 77 °F
Forecast: 45 / 75 °F
Wind: 3 mph from North

Location: Winslow Municipal Airport

Current Time: Sep 25, 2016 at 7:03:36 PM

Latest Report: Sep 25, 2016 at 5:56 PM


Visibility: 10 mi

Pressure: 30.08 "Hg (24.68 "Hg at 1727m altitude)

Humidity: 16%

Dew Point: 27 °F

Location of Kykotsmovi Village, HopiLocation

Past Weather in Kykotsmovi Village, Hopi — Graph

°F

Kykotsmovi Village, Hopi Temperature Yesterday

Maximum temperature yesterday: 74 °F (at 2:56 PM)
Minimum temperature yesterday: 40 °F (at 4:56 AM)
Average temperature yesterday: 57 °F

High & Low Weather Summary for the Past Weeks

 TemperatureHumidityPressure
High91 °F (Sep 11, 12:56 PM)93% (Sep 20, 10:56 PM)30.22 "Hg (Sep 20, 10:56 PM)
Low40 °F (Sep 24, 4:56 AM)6% (Sep 17, 3:56 PM)29.66 "Hg (Sep 23, 1:56 AM)
Average67 °F34%29.96 "Hg
* Reported Sep 10 5:56 PM — Sep 25 5:56 PM, Kykotsmovi Village, Hopi, Weather by CustomWeather, © 2016

Note: Actual official high and low records may vary slightly from our data, if they occured in-between our weather recording intervals... More about our weather records

Advertising

Kykotsmovi Village, Hopi Weather History for the Previous 24 Hours

Scroll right to see more
 ConditionsComfort  
Time TempWeatherWind HumidityBarometerVisibility
5:56 PM
Sun, Sep 25
77 °FSunny.3 mph16%30.08 "Hg10 mi
4:56 PM78 °FSunny.5 mph15%30.09 "Hg10 mi
3:56 PM78 °FSunny.N/A16%30.09 "Hg10 mi
2:56 PM77 °FSunny.9 mph16%30.11 "Hg10 mi
1:56 PM76 °FSunny.9 mph19%30.09 "Hg10 mi
12:56 PM73 °FSunny.10 mph24%30.14 "Hg10 mi
11:56 AM70 °FSunny.7 mph28%30.18 "Hg10 mi
10:56 AM65 °FSunny.3 mph33%30.20 "Hg10 mi
9:56 AM63 °FSunny.5 mph35%30.21 "Hg10 mi
8:56 AM60 °FSunny.7 mph39%30.21 "Hg10 mi
7:56 AM55 °FSunny.10 mph45%30.21 "Hg10 mi
6:56 AM46 °FSunny.8 mph58%30.22 "Hg10 mi
5:56 AM43 °FClear.7 mph60%30.19 "Hg10 mi
4:56 AM41 °FClear.7 mph60%30.18 "Hg10 mi
3:56 AM41 °FClear.3 mph58%30.17 "Hg10 mi
2:56 AM43 °FClear.3 mph53%30.16 "Hg10 mi
1:56 AM51 °FClear.7 mph44%30.14 "Hg10 mi
12:56 AM44 °FClear.5 mph49%30.15 "Hg10 mi
11:56 PM
Sat, Sep 24
46 °FClear.No wind46%30.13 "Hg10 mi
10:56 PM51 °FClear.5 mph41%30.11 "Hg10 mi
9:56 PM59 °FClear.7 mph32%30.10 "Hg10 mi
8:56 PM62 °FClear.14 mph29%30.10 "Hg10 mi
7:56 PM64 °FClear.14 mph27%30.08 "Hg10 mi
Weather by CustomWeather, © 2016

See weather overviewHow to use our weather pages